FW8050 Weather Reports


Display with metric or nautical units.
time (UTC)temp
F
wind
direction
speed
MPH
gust
MPH
rain 1hr
in
rain 24hr
in
rain mn
in
humidity
%
barometer
mb
20260906060940 74 348 2.0 4.0 0.41 0.00 0.46 90 1013.5
20260906060440 74 184 1.0 2.0 0.41 0.00 0.41 86 1012.8
20260906055940 74 169 3.0 4.0 0.07 0.00 0.41 85 1012.8
20260906055440 75 135 2.0 4.0 0.03 0.00 0.41 89 1012.8
20260906054940 76 128 3.0 5.0 0.03 0.00 0.14 88 1012.8
20260906054441 77 91 1.0 3.0 0.03 0.00 0.06 87 1013.0
20260906053942 79 144 2.0 4.0 0.03 0.00 0.04 83 1013.1
20260906053440 80 137 1.0 3.0 0.00 0.00 0.01 80 1013.6
20260906052941 81 138 2.0 4.0 0.00 0.00 0.00 73 1013.5
20260906052440 80 144 2.0 6.0 0.00 0.00 0.00 72 1013.4
20260906051940 80 158 2.0 4.0 0.00 0.00 0.00 75 1013.5
20260906051440 79 77 2.0 4.0 0.00 0.00 0.00 77 1013.5
20260906050940 78 163 2.0 6.0 0.00 0.00 0.00 82 1013.4
20260906050441 78 7 0.0 2.0 0.00 0.00 0.00 82 1013.2
20260906045941 78 360 0.0 0.0 0.00 0.00 0.02 82 1013.0
20260906045448 78 360 0.0 0.0 0.00 0.00 0.02 82 1012.9
20260906044941 78 360 0.0 0.0 0.00 0.00 0.02 82 1012.9
20260906044440 78 360 0.0 0.0 0.00 0.00 0.02 82 1013.0
20260906043940 78 286 0.0 1.0 0.00 0.00 0.02 82 1013.2
20260906043441 78 360 0.0 0.0 0.00 0.00 0.02 82 1013.3
20260906042941 78 162 0.0 1.0 0.00 0.00 0.02 82 1013.3
20260906042441 78 360 0.0 0.0 0.00 0.00 0.02 82 1013.3
20260906041940 78 360 0.0 0.0 0.00 0.00 0.02 82 1013.4
20260906041440 78 360 0.0 0.0 0.00 0.00 0.02 82 1013.4
20260906040941 79 360 0.0 0.0 0.00 0.00 0.02 81 1013.4
20260906040440 79 190 0.0 0.0 0.00 0.00 0.02 81 1013.4
20260906035943 79 360 0.0 0.0 0.00 0.00 0.02 80 1013.5
20260906035440 79 360 0.0 0.0 0.00 0.00 0.02 80 1013.5
20260906034941 79 360 0.0 0.0 0.00 0.00 0.02 79 1013.5
20260906034441 79 262 0.0 1.0 0.00 0.00 0.02 79 1013.4
20260906033940 79 360 0.0 0.0 0.00 0.00 0.02 79 1013.4
20260906033441 80 360 0.0 0.0 0.00 0.00 0.02 79 1013.4
20260906032940 80 360 0.0 0.0 0.00 0.00 0.02 78 1013.4
20260906032440 80 360 0.0 0.0 0.00 0.00 0.02 77 1013.4
20260906031940 80 360 0.0 0.0 0.00 0.00 0.02 78 1013.4
20260906031441 80 360 0.0 0.0 0.00 0.00 0.02 77 1013.3
20260906030941 80 360 0.0 0.0 0.00 0.00 0.02 77 1013.3
20260906030440 81 360 0.0 0.0 0.00 0.00 0.02 78 1013.2
20260906025942 81 360 0.0 0.0 0.00 0.00 0.02 77 1013.3
20260906025443 81 360 0.0 0.0 0.00 0.00 0.02 74 1013.2
20260906024940 81 360 0.0 0.0 0.00 0.00 0.02 75 1013.2
20260906024441 81 292 0.0 1.0 0.00 0.00 0.02 76 1013.2
20260906023942 80 295 0.0 1.0 0.00 0.00 0.02 74 1013.0
20260906023441 80 360 0.0 0.0 0.00 0.00 0.02 79 1013.0
20260906022941 80 360 0.0 0.0 0.00 0.00 0.02 78 1012.9
20260906022442 80 254 0.0 1.0 0.00 0.00 0.02 78 1012.7
20260906021941 80 275 0.0 2.0 0.00 0.00 0.02 80 1012.7
20260906021441 80 199 0.0 1.0 0.00 0.00 0.02 79 1012.7
20260906020941 80 360 0.0 0.0 0.00 0.00 0.02 79 1012.7
20260906020443 80 207 1.0 2.0 0.00 0.00 0.02 79 1012.6
20260906015940 80 331 0.0 1.0 0.00 0.00 0.02 78 1012.6
20260906015440 80 360 0.0 0.0 0.00 0.00 0.02 79 1012.6
20260906014941 80 108 0.0 1.0 0.00 0.00 0.02 79 1012.4
20260906014440 80 360 0.0 0.0 0.00 0.00 0.02 79 1012.4
20260906013941 80 340 0.0 2.0 0.00 0.00 0.02 77 1012.3
20260906013441 81 360 0.0 0.0 0.00 0.00 0.02 78 1012.2
20260906012940 81 360 0.0 0.0 0.00 0.00 0.02 77 1012.1
20260906012440 81 360 0.0 0.0 0.00 0.00 0.02 77 1012.1
20260906011941 81 360 0.0 0.0 0.00 0.00 0.02 77 1012.0
20260906011440 81 360 0.0 0.0 0.00 0.00 0.02 78 1012.1
20260906010941 81 360 0.0 0.0 0.00 0.00 0.02 76 1012.1
20260906010441 81 360 0.0 0.0 0.00 0.00 0.02 77 1012.1
20260906005940 81 360 0.0 0.0 0.00 0.00 0.02 77 1012.0
20260906005441 81 271 0.0 1.0 0.00 0.00 0.02 76 1012.0
20260906004941 81 278 0.0 0.0 0.00 0.00 0.02 76 1012.0
20260906004440 81 360 0.0 0.0 0.00 0.00 0.02 76 1011.9
20260906003941 81 360 0.0 0.0 0.00 0.00 0.02 74 1011.9
20260906003441 81 271 0.0 0.0 0.02 0.00 0.02 74 1011.9
20260906002941 81 297 0.0 1.0 0.02 0.00 0.02 76 1011.9
20260906002443 81 242 0.0 2.0 0.02 0.00 0.02 77 1012.0
20260906001940 81 236 0.0 2.0 0.02 0.00 0.02 77 1012.0
20260906001440 81 360 0.0 0.0 0.02 0.00 0.02 77 1012.2
20260906000941 81 226 0.0 1.0 0.02 0.00 0.02 79 1012.3
20260906000441 82 237 1.0 2.0 0.02 0.00 0.02 82 1012.7
20260905235940 82 216 1.0 2.0 0.02 0.00 0.02 78 1012.8
20260905235441 82 223 0.0 2.0 0.02 0.00 0.02 78 1013.0
20260905234941 82 38 1.0 3.0 0.02 0.00 0.02 80 1012.8
20260905234441 82 187 0.0 2.0 0.02 0.00 0.02 78 1012.7
20260905233941 83 287 1.0 2.0 0.02 0.00 0.02 80 1012.6
20260905233440 87 314 2.0 2.0 0.02 0.00 0.02 74 1012.1
20260905232940 90 272 1.0 2.0 0.02 0.00 0.02 59 1011.9
20260905232441 91 14 0.0 2.0 0.00 0.00 0.00 55 1011.8
20260905231941 91 360 0.0 0.0 0.00 0.00 0.00 55 1011.6
20260905231451 92 360 0.0 0.0 0.00 0.00 0.00 55 1011.6
20260905230940 92 360 0.0 0.0 0.00 0.00 0.00 54 1011.6
20260905230440 92 131 0.0 1.0 0.00 0.00 0.00 53 1011.6
20260905225940 93 360 0.0 0.0 0.00 0.00 0.00 52 1011.5
20260905225442 94 148 1.0 3.0 0.00 0.00 0.00 54 1011.5
20260905224941 94 360 0.0 0.0 0.00 0.00 0.00 52 1011.3
20260905224440 94 360 0.0 0.0 0.00 0.00 0.00 52 1011.3
20260905223940 94 360 0.0 0.0 0.00 0.00 0.00 50 1011.4
20260905223440 94 198 1.0 2.0 0.00 0.00 0.00 49 1011.4
20260905222941 94 253 0.0 1.0 0.00 0.00 0.00 51 1011.4
20260905222443 94 270 0.0 1.0 0.00 0.00 0.00 51 1011.4
20260905221940 95 193 1.0 2.0 0.00 0.00 0.00 49 1011.4
20260905221440 95 158 1.0 3.0 0.00 0.00 0.00 48 1011.4
20260905220941 95 195 1.0 2.0 0.00 0.00 0.00 48 1011.5
20260905220441 95 157 1.0 3.0 0.00 0.00 0.00 48 1011.5
20260905215940 95 212 1.0 2.0 0.00 0.00 0.00 48 1011.5
20260905215442 95 360 0.0 0.0 0.00 0.00 0.00 49 1011.6
20260905214941 96 360 0.0 0.0 0.00 0.00 0.00 48 1011.6
20260905214441 96 246 0.0 0.0 0.00 0.00 0.00 47 1011.6
20260905213940 96 155 2.0 2.0 0.00 0.00 0.00 47 1011.6
20260905213440 96 128 0.0 2.0 0.00 0.00 0.00 47 1011.6
20260905212940 96 155 1.0 3.0 0.00 0.00 0.00 45 1011.6
20260905212440 96 157 1.0 3.0 0.00 0.00 0.00 45 1011.6
20260905211940 96 178 1.0 2.0 0.00 0.00 0.00 46 1011.6
20260905211440 96 148 3.0 4.0 0.00 0.00 0.00 45 1011.6
20260905210940 97 147 2.0 3.0 0.00 0.00 0.00 45 1011.6
20260905210441 96 196 0.0 3.0 0.00 0.00 0.00 46 1011.6
20260905205941 97 360 0.0 0.0 0.00 0.00 0.00 48 1011.6
20260905205447 97 194 0.0 0.0 0.00 0.00 0.00 47 1011.6
20260905204943 97 152 2.0 3.0 0.00 0.00 0.00 45 1011.7
20260905204441 97 155 1.0 3.0 0.00 0.00 0.00 45 1011.9
20260905203940 97 150 1.0 3.0 0.00 0.00 0.00 46 1011.9
20260905203440 98 170 0.0 2.0 0.00 0.00 0.00 45 1011.9
20260905202942 98 162 1.0 2.0 0.00 0.00 0.00 44 1012.1
20260905202440 98 157 0.0 2.0 0.00 0.00 0.00 45 1012.1
20260905201940 98 191 0.0 2.0 0.00 0.00 0.00 45 1012.1
20260905201441 98 173 2.0 3.0 0.00 0.00 0.00 46 1012.2
20260905200941 98 143 2.0 4.0 0.00 0.00 0.00 46 1012.2
20260905200441 98 151 2.0 4.0 0.00 0.00 0.00 44 1012.3
20260905195941 98 152 1.0 2.0 0.00 0.00 0.00 46 1012.6
20260905195441 98 193 2.0 3.0 0.00 0.00 0.00 45 1012.6
20260905194941 99 161 2.0 4.0 0.00 0.00 0.00 44 1012.7
20260905194441 99 192 2.0 2.0 0.00 0.00 0.00 44 1012.8
20260905193940 99 168 0.0 3.0 0.00 0.00 0.00 45 1012.8
20260905193441 100 152 3.0 4.0 0.00 0.00 0.00 44 1012.8
20260905192941 100 183 1.0 3.0 0.00 0.00 0.00 44 1012.8
20260905192442 100 96 0.0 4.0 0.00 0.00 0.00 44 1012.9
20260905191941 99 205 2.0 2.0 0.00 0.00 0.00 43 1013.0
20260905191441 99 173 1.0 2.0 0.00 0.00 0.00 43 1013.1
20260905190941 99 173 1.0 2.0 0.00 0.00 0.00 44 1013.2
20260905190441 99 134 2.0 4.0 0.00 0.00 0.00 44 1013.3
20260905185940 99 147 3.0 5.0 0.00 0.00 0.00 43 1013.4
20260905185440 98 164 1.0 6.0 0.00 0.00 0.00 46 1013.5
20260905184942 99 185 1.0 2.0 0.00 0.00 0.00 47 1013.5
20260905184440 100 119 0.0 1.0 0.00 0.00 0.00 43 1013.5
20260905183943 100 187 2.0 3.0 0.00 0.00 0.00 45 1013.7
20260905183440 100 174 2.0 3.0 0.00 0.00 0.00 45 1013.7
20260905182941 99 181 1.0 3.0 0.00 0.00 0.00 48 1013.8
20260905182441 99 171 2.0 5.0 0.00 0.00 0.00 46 1013.8
20260905181940 100 153 2.0 4.0 0.00 0.00 0.00 47 1013.8
20260905181440 100 201 1.0 2.0 0.00 0.00 0.00 47 1013.9
20260905180941 99 155 2.0 5.0 0.00 0.00 0.00 46 1014.0
20260905180441 99 202 1.0 2.0 0.00 0.00 0.00 46 1014.1
20260905175958 98 168 3.0 6.0 0.00 0.00 0.00 46 1014.1
20260905175441 98 218 1.0 2.0 0.00 0.00 0.00 49 1014.2
20260905174941 99 226 2.0 2.0 0.00 0.00 0.00 48 1014.1
20260905174441 99 138 1.0 2.0 0.00 0.00 0.00 49 1014.2
20260905173940 99 179 3.0 5.0 0.00 0.00 0.00 47 1014.2
20260905173440 98 165 2.0 4.0 0.00 0.00 0.00 49 1014.2
20260905172941 99 172 2.0 4.0 0.00 0.00 0.00 48 1014.3
20260905172441 98 151 2.0 4.0 0.00 0.00 0.00 48 1014.4
20260905171941 97 189 2.0 3.0 0.00 0.00 0.00 51 1014.5
20260905171441 97 223 1.0 2.0 0.00 0.00 0.00 51 1014.5
20260905170940 98 131 2.0 6.0 0.00 0.00 0.00 49 1014.6
20260905170441 97 150 1.0 4.0 0.00 0.00 0.00 49 1014.6
20260905165942 96 173 1.0 4.0 0.00 0.00 0.00 50 1014.6
20260905165440 95 193 2.0 3.0 0.00 0.00 0.00 53 1014.6
20260905164941 95 142 2.0 3.0 0.00 0.00 0.00 54 1014.7
20260905164441 95 160 2.0 4.0 0.00 0.00 0.00 53 1014.8
20260905163941 94 147 3.0 5.0 0.00 0.00 0.00 54 1014.9
20260905163441 94 125 2.0 3.0 0.00 0.00 0.00 54 1015.0
20260905162940 94 143 2.0 4.0 0.00 0.00 0.00 55 1015.1
20260905162441 94 143 3.0 6.0 0.00 0.00 0.00 55 1015.2
20260905161940 93 141 2.0 4.0 0.00 0.00 0.00 57 1015.2
20260905161441 94 139 2.0 4.0 0.00 0.00 0.00 57 1015.2
20260905160941 94 150 4.0 6.0 0.00 0.00 0.00 56 1015.3
20260905160440 94 142 2.0 4.0 0.00 0.00 0.00 57 1015.3
20260905155941 95 140 2.0 4.0 0.00 0.00 0.00 54 1015.4
20260905155440 94 148 0.0 3.0 0.00 0.00 0.00 55 1015.4
20260905154942 93 171 1.0 4.0 0.00 0.00 0.00 59 1015.4
20260905154441 93 176 2.0 4.0 0.00 0.00 0.00 57 1015.4
20260905153941 93 145 0.0 0.0 0.00 0.00 0.00 58 1015.5
20260905153441 93 190 1.0 2.0 0.00 0.00 0.00 60 1015.5
20260905152941 94 217 2.0 2.0 0.00 0.00 0.00 60 1015.5
20260905152441 93 157 1.0 2.0 0.00 0.00 0.00 58 1015.5
20260905151943 93 194 0.0 1.0 0.00 0.00 0.00 61 1015.5
20260905151441 92 177 0.0 2.0 0.00 0.00 0.00 62 1015.5
20260905150940 91 360 0.0 0.0 0.00 0.00 0.00 63 1015.5
20260905150441 90 196 1.0 2.0 0.00 0.00 0.00 66 1015.5
20260905145941 89 155 1.0 3.0 0.00 0.00 0.00 67 1015.5
20260905145440 88 215 0.0 2.0 0.00 0.00 0.00 69 1015.4
20260905144941 88 139 0.0 2.0 0.00 0.00 0.00 70 1015.4
20260905144440 88 360 0.0 0.0 0.00 0.00 0.00 71 1015.5
20260905143943 88 138 0.0 2.0 0.00 0.00 0.00 71 1015.6
20260905143440 87 154 0.0 1.0 0.00 0.00 0.00 71 1015.6
20260905142941 86 156 0.0 2.0 0.00 0.00 0.00 72 1015.7
20260905142440 85 360 0.0 0.0 0.00 0.00 0.00 74 1015.7
20260905141940 85 360 0.0 0.0 0.00 0.00 0.00 75 1015.7
20260905141441 84 194 0.0 2.0 0.00 0.00 0.00 76 1015.8
20260905140940 83 360 0.0 0.0 0.00 0.00 0.00 77 1015.9
20260905140440 83 185 0.0 2.0 0.00 0.00 0.00 78 1015.8
20260905135941 83 164 0.0 0.0 0.00 0.00 0.00 79 1015.8
20260905135440 82 209 0.0 2.0 0.00 0.00 0.00 80 1015.9
20260905134941 82 186 0.0 1.0 0.00 0.00 0.00 81 1015.9
20260905134440 82 201 1.0 2.0 0.00 0.00 0.00 81 1015.9
20260905133941 82 360 0.0 0.0 0.00 0.00 0.00 81 1015.9
20260905133440 82 163 0.0 1.0 0.00 0.00 0.00 81 1016.0
20260905132940 82 179 0.0 1.0 0.00 0.00 0.00 80 1016.0
20260905132440 82 360 0.0 0.0 0.00 0.00 0.00 80 1016.0
20260905131940 81 360 0.0 0.0 0.00 0.00 0.00 82 1016.1
20260905131441 81 221 0.0 1.0 0.00 0.00 0.00 83 1016.1
20260905130941 80 360 0.0 0.0 0.00 0.00 0.00 84 1016.0
20260905130440 79 360 0.0 0.0 0.00 0.00 0.00 85 1016.1
20260905125941 78 360 0.0 0.0 0.00 0.00 0.00 87 1016.1
20260905125440 77 360 0.0 0.0 0.00 0.00 0.00 89 1016.1
20260905124941 76 209 0.0 1.0 0.00 0.00 0.00 90 1016.1
20260905124440 76 360 0.0 0.0 0.00 0.00 0.00 92 1016.1
20260905123940 75 360 0.0 0.0 0.00 0.00 0.00 92 1016.0
20260905123440 75 360 0.0 0.0 0.00 0.00 0.00 93 1016.1
20260905122940 75 360 0.0 0.0 0.00 0.00 0.00 93 1016.0
20260905122441 74 360 0.0 0.0 0.00 0.00 0.00 93 1016.0
20260905121940 74 360 0.0 0.0 0.00 0.00 0.00 93 1016.0
20260905121441 74 111 0.0 0.0 0.00 0.00 0.00 93 1015.8
20260905120941 74 360 0.0 0.0 0.00 0.00 0.00 94 1015.8
20260905120441 74 360 0.0 0.0 0.00 0.00 0.00 94 1015.7
20260905115940 74 360 0.0 0.0 0.00 0.00 0.00 94 1015.7
20260905115442 74 360 0.0 0.0 0.00 0.00 0.00 94 1015.6
20260905114942 74 360 0.0 0.0 0.00 0.00 0.00 94 1015.6
20260905114441 74 360 0.0 0.0 0.00 0.00 0.00 93 1015.4
20260905113941 74 360 0.0 0.0 0.00 0.00 0.00 93 1015.4
20260905113440 74 360 0.0 0.0 0.00 0.00 0.00 93 1015.3
20260905112940 74 360 0.0 0.0 0.00 0.00 0.00 94 1015.2
20260905112440 74 360 0.0 0.0 0.00 0.00 0.00 94 1015.2
20260905111941 74 360 0.0 0.0 0.00 0.00 0.00 94 1015.1
20260905111440 74 360 0.0 0.0 0.00 0.00 0.00 94 1015.0
20260905110941 74 360 0.0 0.0 0.00 0.00 0.00 93 1015.0
20260905110441 74 360 0.0 0.0 0.00 0.00 0.00 93 1014.9
20260905105940 74 360 0.0 0.0 0.00 0.00 0.00 93 1014.8
20260905105441 74 360 0.0 0.0 0.00 0.00 0.00 93 1014.8
20260905104941 74 360 0.0 0.0 0.00 0.00 0.00 92 1014.9
20260905104441 74 360 0.0 0.0 0.00 0.00 0.00 92 1014.8
20260905103941 74 360 0.0 0.0 0.00 0.00 0.00 93 1014.7
20260905103440 74 360 0.0 0.0 0.00 0.00 0.00 93 1014.7
20260905102940 74 360 0.0 0.0 0.00 0.00 0.00 93 1014.6
20260905102440 74 360 0.0 0.0 0.00 0.00 0.00 92 1014.5
20260905101940 74 360 0.0 0.0 0.00 0.00 0.00 93 1014.5
20260905101441 74 360 0.0 0.0 0.00 0.00 0.00 93 1014.5
20260905100941 74 360 0.0 0.0 0.00 0.00 0.00 93 1014.5
20260905100443 74 360 0.0 0.0 0.00 0.00 0.00 93 1014.5
20260905095941 74 360 0.0 0.0 0.00 0.00 0.00 92 1014.5
20260905095441 74 360 0.0 0.0 0.00 0.00 0.00 92 1014.5
20260905094941 74 360 0.0 0.0 0.00 0.00 0.00 92 1014.5
20260905094440 75 360 0.0 0.0 0.00 0.00 0.00 92 1014.5
20260905093941 75 297 0.0 0.0 0.00 0.00 0.00 92 1014.4
20260905093441 75 360 0.0 0.0 0.00 0.00 0.00 92 1014.5
20260905092940 75 360 0.0 0.0 0.00 0.00 0.00 91 1014.5
20260905092440 75 360 0.0 0.0 0.00 0.00 0.00 91 1014.4
20260905091940 75 360 0.0 0.0 0.00 0.00 0.00 91 1014.4
20260905091441 75 360 0.0 0.0 0.00 0.00 0.00 91 1014.4
20260905090941 75 360 0.0 0.0 0.00 0.00 0.00 91 1014.4
20260905090444 75 360 0.0 0.0 0.00 0.00 0.00 91 1014.3
20260905085940 75 360 0.0 0.0 0.00 0.00 0.00 90 1014.3
20260905085440 75 360 0.0 0.0 0.00 0.00 0.00 90 1014.4
20260905084940 75 360 0.0 0.0 0.00 0.00 0.00 90 1014.4
20260905084440 75 360 0.0 0.0 0.00 0.00 0.00 90 1014.4
20260905083943 75 360 0.0 0.0 0.00 0.00 0.00 90 1014.4
20260905083440 75 360 0.0 0.0 0.00 0.00 0.00 90 1014.3
20260905082941 75 360 0.0 0.0 0.00 0.00 0.00 90 1014.3
20260905082441 75 360 0.0 0.0 0.00 0.00 0.00 90 1014.3
20260905081940 75 264 0.0 0.0 0.00 0.00 0.00 90 1014.3
20260905081441 75 360 0.0 0.0 0.00 0.00 0.00 89 1014.3
20260905080941 75 360 0.0 0.0 0.00 0.00 0.00 89 1014.3
20260905080440 76 360 0.0 0.0 0.00 0.00 0.00 89 1014.2
20260905075941 76 360 0.0 0.0 0.00 0.00 0.00 89 1014.1
20260905075440 76 360 0.0 0.0 0.00 0.00 0.00 89 1014.1
20260905074941 76 360 0.0 0.0 0.00 0.00 0.00 89 1014.1
20260905074441 76 360 0.0 0.0 0.00 0.00 0.00 89 1014.1
20260905073940 76 360 0.0 0.0 0.00 0.00 0.00 88 1014.1
20260905073442 76 360 0.0 0.0 0.00 0.00 0.00 88 1014.1
20260905072941 76 360 0.0 0.0 0.00 0.00 0.00 89 1014.1
20260905072441 76 360 0.0 0.0 0.00 0.00 0.00 88 1014.1
20260905071941 76 360 0.0 0.0 0.00 0.00 0.00 89 1014.1
20260905071440 76 360 0.0 0.0 0.00 0.00 0.00 89 1014.2
20260905070940 76 360 0.0 0.0 0.00 0.00 0.00 88 1014.2
20260905070441 76 360 0.0 0.0 0.00 0.00 0.00 88 1014.3
20260905065940 76 360 0.0 0.0 0.00 0.00 0.00 88 1014.3
20260905065440 76 360 0.0 0.0 0.00 0.00 0.00 87 1014.3
20260905064940 76 360 0.0 0.0 0.00 0.00 0.00 87 1014.4
20260905064441 76 360 0.0 0.0 0.00 0.00 0.00 87 1014.4
20260905063941 76 360 0.0 0.0 0.00 0.00 0.00 87 1014.5
20260905063441 76 360 0.0 0.0 0.00 0.00 0.00 87 1014.6
20260905062941 76 360 0.0 0.0 0.00 0.00 0.00 87 1014.6
20260905062440 76 360 0.0 0.0 0.00 0.00 0.00 87 1014.7
20260905061941 77 360 0.0 0.0 0.00 0.00 0.00 87 1014.7
20260905061440 77 360 0.0 0.0 0.00 0.00 0.00 86 1014.7